Wind_Speed
99 96 91 86 85 81 75 75 71 67 66 54 56 56 56 58 57 54 55 58 61 64 68 75 77 77 80 82 74 70 68 63 56 54 48 49 44 43 44 47 51 55 52 56
107 101 94 90 89 89 86 80 75 70 62 56 50 57 61 62 59 55 50 48 48 51 54 58 60 61 60 55 54 51 49 46 45 46 42 37 40 46 53 55 56 61 62 65
111 108 102 97 96 93 87 82 78 69 64 62 61 58 58 60 59 55 49 46 46 47 46 45 43 43 41 43 43 37 39 40 38 33 35 43 49 56 57 60 63 65 62 61
112 115 109 99 95 93 88 82 79 75 67 63 66 65 62 58 57 54 48 46 44 45 47 44 39 36 34 34 32 32 28 27 30 39 47 51 56 59 64 65 67 68 64 63
121 111 112 102 98 97 94 86 80 79 72 67 65 67 71 64 59 57 54 50 48 45 44 39 34 35 34 29 28 29 35 41 43 50 54 53 57 64 65 66 66 65 65 65
121 123 118 105 105 105 98 88 87 79 75 71 65 67 66 68 66 60 57 53 50 47 42 44 40 35 29 31 34 39 46 45 47 52 55 61 61 64 63 61 65 66 68 68
125 122 120 111 105 101 100 94 90 82 77 75 71 70 70 65 58 57 58 55 54 56 50 45 43 37 35 37 42 46 52 54 54 55 55 57 58 59 60 62 66 69 68 68
122 121 120 111 107 103 98 94 92 85 82 76 74 71 70 71 69 66 65 64 63 62 59 49 43 40 41 46 51 55 57 62 62 65 62 54 56 59 59 59 63 67 67 68
119 118 114 111 106 104 98 96 93 87 81 80 79 75 73 72 71 71 69 67 61 58 55 50 49 51 51 50 55 57 56 55 56 54 53 50 59 60 61 61 63 67 69 71
117 114 113 111 106 103 99 98 93 87 85 80 81 79 76 71 72 72 72 70 70 69 66 61 59 57 56 57 58 58 56 54 54 57 55 54 63 61 60 62 65 63 63 62
116 114 110 107 105 103 96 96 95 90 88 85 82 82 79 76 72 73 75 75 73 72 71 68 63 63 60 59 58 59 56 55 57 58 59 59 61 61 60 59 59 64 64 58
109 111 109 107 102 102 99 95 95 92 90 87 87 83 81 80 77 76 76 74 74 74 74 71 67 65 62 62 60 62 59 57 59 62 61 64 59 58 57 58 61 64 58 54
110 110 107 106 106 103 98 98 98 96 91 89 90 87 85 84 81 79 77 77 73 75 76 71 69 66 63 62 62 61 61 61 61 62 64 62 57 55 54 58 61 58 53 41
106 108 108 107 107 104 102 98 97 96 93 91 91 87 85 85 82 80 78 78 76 76 74 72 72 71 67 65 62 58 59 59 64 62 63 57 59 57 57 59 58 51 41 33
100 103 106 106 106 107 105 103 101 98 96 92 90 91 88 86 86 84 83 81 78 77 77 74 72 70 67 64 59 57 60 62 63 61 59 57 57 57 59 57 52 40 32 27
93 98 101 102 103 106 107 104 102 95 93 92 93 92 91 89 88 87 83 81 78 78 76 74 73 67 68 63 59 57 57 64 65 58 54 57 56 57 56 51 43 32 27 26
87 92 97 102 103 104 100 96 94 97 98 97 94 91 90 90 88 85 82 81 81 79 76 73 69 68 67 59 53 59 59 71 68 59 53 54 57 57 51 43 34 28 27 27
82 84 89 96 103 105 101 96 98 102 102 101 101 98 94 91 88 85 83 82 82 79 78 74 72 71 67 53 52 57 68 70 65 57 55 55 57 52 44 38 29 27 25 28
78 82 89 98 100 90 90 92 98 103 102 102 99 96 93 92 90 89 86 82 82 81 77 74 76 71 59 57 59 61 72 68 60 55 55 58 54 47 39 31 28 24 25 31
81 88 93 93 80 83 87 91 96 99 97 96 94 92 89 89 89 87 87 87 85 81 78 77 68 58 59 57 62 67 70 66 57 57 57 54 47 39 29 29 23 24 29 34
84 87 83 73 75 81 82 86 89 88 85 86 86 87 87 87 87 88 88 85 82 77 75 73 63 58 58 66 67 69 67 60 58 55 52 45 39 30 28 25 23 26 31 36
70 69 68 68 74 77 78 77 76 76 76 75 79 85 85 87 88 87 84 82 78 73 69 65 56 59 63 73 71 67 65 60 53 50 41 34 33 29 27 23 24 29 32 41
70 71 72 72 73 70 66 61 61 63 61 54 68 76 83 86 83 82 83 77 70 66 64 57 54 63 76 74 72 68 62 55 48 39 33 35 30 28 24 24 27 28 37 42
65 63 63 64 60 54 53 49 55 57 61 62 68 80 80 83 83 79 69 62 59 55 49 47 67 72 69 70 68 62 56 44 35 33 38 32 29 23 24 26 26 33 40 37
54 52 50 50 48 51 53 55 58 57 63 64 66 67 66 69 60 55 48 45 42 39 46 66 67 67 65 62 59 54 37 29 35 39 34 28 24 22 25 25 31 37 34 35
45 44 46 48 50 50 49 53 53 51 52 52 47 43 42 43 43 41 41 41 44 58 70 63 61 59 58 55 46 29 29 38 41 35 28 25 22 24 24 29 35 33 33 35
39 42 47 50 50 50 52 50 49 47 44 40 38 39 40 44 42 43 45 54 63 62 56 55 56 53 48 35 27 39 43 42 35 29 25 22 23 22 27 35 29 30 33 37
Wind_Direction
245 246 249 251 253 253 254 256 258 256 241 240 250 255 255 260 261 259 259 258 257 259 259 257 258 261 260 264 268 270 273 274 276 275 270 269 273 279 287 298 303 306 310 305
243 244 247 248 251 252 253 255 256 257 259 239 240 251 256 260 262 262 262 266 264 262 263 263 261 263 264 267 269 270 269 269 266 264 264 281 299 307 304 295 298 299 302 298
240 242 245 246 249 250 251 252 252 254 259 260 253 251 250 255 259 264 264 263 264 264 264 267 269 269 270 268 267 266 263 258 256 268 295 305 304 298 290 292 296 300 296 297
243 241 242 242 244 246 248 247 251 252 252 257 259 258 257 252 252 254 258 260 264 266 267 268 269 268 266 260 259 261 277 291 295 299 298 296 294 288 289 294 296 299 294 294
238 239 237 241 243 244 248 247 250 251 250 251 250 259 264 262 261 257 252 251 252 259 260 262 262 263 269 272 283 288 293 291 291 289 290 289 292 291 293 294 297 298 293 291
236 238 237 240 239 240 241 244 246 250 249 247 244 245 248 263 265 266 265 262 259 256 255 258 258 272 277 281 285 283 280 280 282 281 283 289 290 289 293 295 295 295 295 296
232 234 237 236 237 238 240 242 245 241 242 243 242 242 241 238 248 258 267 270 273 273 275 274 278 279 276 271 273 274 275 279 280 280 287 290 289 289 292 293 295 296 295 296
229 231 232 233 235 236 239 240 241 242 244 242 243 244 244 242 241 240 254 260 265 271 275 276 274 268 267 266 269 271 273 276 276 284 288 290 287 289 290 290 290 293 298 300
228 229 230 233 232 234 234 236 238 239 241 243 243 241 241 240 240 243 247 250 260 266 263 268 266 268 269 269 268 272 272 276 278 281 287 291 286 290 292 292 291 293 295 296
225 226 228 229 231 230 231 235 237 238 240 241 241 242 242 242 242 243 245 247 248 250 252 253 257 260 262 264 270 274 278 281 282 285 288 289 288 291 292 292 296 299 300 301
224 226 227 228 228 228 229 232 235 237 239 239 240 240 242 244 242 242 244 245 249 251 254 254 257 261 266 269 271 274 276 279 281 286 288 287 289 292 294 298 297 301 303 303
224 225 225 226 228 227 229 231 233 236 237 239 238 240 241 243 243 245 246 245 248 252 255 256 258 261 264 268 271 275 277 281 281 285 284 286 290 291 294 297 301 301 304 299
223 225 225 225 225 227 228 229 231 234 235 236 236 237 239 241 244 245 247 247 247 249 254 255 259 261 265 269 270 271 277 278 281 280 280 284 289 292 294 299 302 306 299 290
221 222 223 224 224 226 227 228 229 232 233 234 234 235 236 240 241 243 245 249 251 251 254 255 258 262 266 267 270 273 277 275 276 277 279 285 287 291 296 300 304 300 289 276
221 222 223 224 225 225 225 226 227 229 231 233 235 236 237 239 242 242 246 248 248 251 254 256 258 263 265 267 269 274 273 274 274 275 281 283 286 292 297 303 302 289 272 277
221 221 222 224 224 226 227 227 228 228 232 233 234 235 238 239 241 242 246 246 248 251 254 257 258 260 263 264 268 271 274 275 273 274 278 281 288 292 298 301 291 272 272 276
220 220 222 222 224 227 228 226 225 226 228 232 233 234 236 239 242 243 245 246 248 250 252 254 258 260 262 264 267 270 272 268 272 277 279 283 288 292 297 293 272 266 270 286
219 220 221 222 223 225 226 225 224 226 227 230 232 232 232 235 239 241 244 245 247 250 255 255 257 257 263 264 267 265 266 266 270 276 280 284 289 291 295 278 258 263 279 295
218 219 220 222 223 224 225 224 226 228 230 232 232 232 232 235 237 240 241 242 246 249 251 255 254 257 263 264 262 265 263 265 268 276 279 283 287 289 280 254 256 270 287 296
215 218 221 222 221 223 225 225 226 229 230 231 231 232 233 235 237 239 242 243 245 246 250 254 257 260 260 262 262 263 264 266 269 272 276 282 284 277 248 247 258 276 288 298
216 218 220 219 220 223 224 226 228 230 231 231 232 233 234 235 237 240 243 246 247 248 250 255 257 260 260 260 260 261 262 262 265 270 276 280 271 241 238 247 263 279 291 314
216 219 220 219 221 222 223 225 226 230 231 231 232 233 235 237 238 241 244 246 249 250 252 255 258 258 257 256 256 259 260 260 263 268 276 264 237 228 236 252 269 282 308 303
212 213 214 215 218 221 223 225 227 232 234 233 237 238 238 239 242 243 244 246 248 252 254 254 255 252 248 251 255 256 257 258 261 271 257 225 221 227 242 259 273 300 299 301
209 211 213 216 218 219 223 221 226 229 235 236 235 237 236 238 240 239 241 240 243 245 247 249 244 243 246 249 251 251 253 256 264 241 218 213 218 234 250 266 288 296 298 300
207 208 209 212 213 216 218 217 221 219 222 228 229 232 233 233 233 234 232 232 235 234 232 232 234 237 239 240 241 245 252 246 221 209 207 211 226 243 260 280 291 295 297 302
196 196 202 203 208 211 212 214 219 221 223 227 231 234 231 227 225 223 221 217 217 221 224 225 229 230 231 234 238 243 217 204 202 201 206 219 235 253 274 287 289 293 296 305
183 188 194 198 200 202 205 209 213 215 216 218 215 213 213 216 216 216 215 215 219 222 222 223 225 227 230 235 213 194 192 195 194 203 213 229 247 266 278 284 287 291 299 305
Height
10486 10499 10512 10522 10532 10540 10547 10553 10559 10564 10577 10592 10599 10602 10604 10607 10609 10612 10612 10615 10619 10621 10624 10629 10634 10637 10640 10640 10646 10649 10650 10648 10646 10644 10641 10638 10635 10631 10629 10625 10622 10619 10622 10621
10464 10479 10492 10505 10514 10522 10530 10537 10545 10551 10561 10580 10582 10585 10588 10593 10595 10599 10601 10600 10604 10607 10610 10612 10618 10622 10625 10629 10629 10632 10633 10634 10631 10631 10627 10624 10620 10619 10616 10612 10610 10607 10607 10597
10442 10458 10472 10487 10496 10503 10513 10521 10531 10541 10552 10558 10561 10567 10577 10581 10581 10584 10585 10588 10589 10593 10597 10601 10604 10607 10612 10613 10616 10619 10618 10620 10619 10617 10613 10612 10611 10608 10600 10599 10599 10598 10587 10587
10420 10434 10451 10467 10477 10485 10495 10506 10518 10528 10542 10547 10546 10546 10556 10565 10570 10573 10576 10577 10578 10581 10587 10591 10596 10599 10602 10603 10605 10606 10605 10605 10606 10604 10603 10603 10602 10592 10586 10586 10582 10581 10575 10570
10395 10406 10423 10442 10455 10465 10478 10491 10503 10512 10525 10530 10536 10538 10536 10543 10551 10559 10565 10566 10570 10574 10578 10582 10588 10590 10589 10589 10590 10592 10593 10596 10596 10595 10594 10594 10589 10575 10572 10569 10566 10564 10558 10554
10368 10384 10402 10420 10433 10448 10459 10473 10484 10493 10507 10513 10523 10530 10532 10526 10531 10539 10544 10550 10557 10562 10569 10576 10577 10577 10576 10577 10579 10581 10584 10586 10588 10587 10584 10584 10575 10562 10561 10559 10550 10546 10540 10537
10342 10361 10379 10397 10414 10430 10442 10452 10461 10473 10484 10493 10504 10511 10519 10524 10525 10526 10529 10535 10538 10542 10551 10558 10560 10562 10565 10568 10569 10571 10571 10573 10576 10577 10574 10574 10561 10554 10550 10546 10538 10530 10525 10522
10318 10336 10356 10374 10391 10407 10423 10432 10444 10454 10467 10477 10488 10496 10505 10512 10519 10523 10521 10524 10527 10532 10536 10544 10549 10551 10555 10557 10559 10560 10560 10560 10563 10563 10561 10561 10548 10544 10541 10538 10528 10520 10512 10506
10296 10316 10333 10351 10369 10384 10401 10412 10423 10435 10448 10460 10470 10478 10487 10497 10504 10509 10514 10519 10518 10520 10524 10532 10538 10541 10544 10547 10547 10547 10548 10547 10549 10549 10548 10547 10530 10531 10528 10524 10518 10510 10504 10495
10274 10292 10311 10328 10346 10363 10379 10392 10402 10416 10428 10442 10451 10460 10470 10479 10488 10495 10499 10503 10507 10511 10518 10525 10530 10533 10534 10535 10533 10533 10534 10535 10534 10532 10533 10533 10517 10519 10516 10511 10506 10496 10488 10480
10253 10272 10292 10309 10326 10343 10361 10372 10381 10397 10410 10420 10432 10442 10452 10460 10469 10478 10481 10486 10493 10497 10502 10510 10516 10519 10521 10522 10522 10520 10522 10523 10519 10518 10516 10513 10508 10507 10502 10496 10490 10482 10474 10466
10233 10252 10271 10288 10306 10323 10339 10353 10363 10375 10389 10404 10413 10423 10434 10443 10451 10458 10465 10475 10477 10481 10487 10494 10499 10504 10506 10509 10512 10508 10510 10509 10507 10502 10499 10494 10497 10494 10489 10482 10474 10468 10460 10452
10214 10232 10251 10268 10284 10301 10320 10332 10341 10354 10372 10382 10392 10406 10415 10424 10433 10439 10447 10455 10463 10466 10470 10478 10484 10489 10493 10496 10497 10499 10498 10496 10492 10487 10480 10483 10483 10480 10477 10470 10461 10453 10444 10439
10194 10211 10229 10247 10262 10278 10297 10312 10322 10335 10350 10361 10375 10385 10397 10405 10414 10422 10429 10435 10444 10451 10456 10462 10468 10475 10480 10483 10485 10487 10486 10482 10473 10472 10466 10475 10468 10466 10461 10456 10449 10441 10434 10431
10178 10195 10209 10227 10243 10256 10271 10285 10301 10317 10326 10344 10358 10363 10376 10388 10396 10404 10411 10419 10427 10434 10439 10447 10452 10459 10463 10468 10473 10477 10470 10466 10457 10458 10459 10459 10456 10453 10447 10442 10435 10429 10425 10423
10161 10176 10192 10208 10221 10231 10248 10266 10285 10307 10315 10327 10335 10348 10356 10366 10376 10385 10394 10402 10410 10418 10425 10431 10438 10443 10447 10456 10462 10460 10456 10440 10437 10446 10449 10446 10444 10439 10435 10429 10423 10420 10417 10413
10144 10158 10173 10187 10198 10212 10234 10259 10280 10282 10290 10300 10313 10325 10337 10348 10359 10371 10379 10385 10393 10399 10408 10416 10422 10426 10431 10443 10450 10443 10441 10417 10423 10432 10435 10433 10430 10426 10423 10417 10413 10411 10408 10405
10130 10143 10156 10167 10172 10184 10211 10239 10250 10254 10264 10275 10285 10300 10319 10331 10342 10351 10360 10368 10375 10383 10391 10401 10407 10411 10417 10435 10432 10427 10409 10407 10413 10418 10419 10419 10416 10414 10410 10406 10405 10403 10400 10397
10114 10125 10132 10129 10140 10179 10209 10223 10223 10228 10243 10252 10270 10288 10305 10312 10324 10332 10340 10350 10357 10365 10374 10383 10384 10400 10414 10415 10411 10408 10386 10395 10403 10406 10406 10404 10403 10402 10398 10397 10396 10394 10392 10389
10093 10095 10098 10113 10155 10175 10185 10192 10195 10204 10223 10236 10254 10272 10289 10300 10305 10314 10323 10329 10336 10347 10359 10361 10378 10393 10394 10395 10390 10383 10377 10383 10391 10391 10392 10393 10391 10389 10388 10389 10388 10386 10383 10380
10065 10075 10096 10134 10149 10152 10159 10168 10181 10196 10209 10225 10246 10262 10273 10282 10289 10295 10301 10309 10319 10335 10346 10350 10369 10381 10380 10366 10367 10361 10363 10372 10376 10378 10381 10381 10379 10379 10381 10381 10379 10377 10375 10369
10077 10093 10109 10120 10125 10133 10142 10157 10174 10182 10196 10219 10235 10247 10256 10263 10270 10276 10287 10293 10304 10320 10333 10340 10356 10362 10353 10342 10342 10345 10351 10359 10364 10367 10370 10369 10369 10372 10372 10371 10370 10369 10364 10361
10062 10075 10085 10099 10108 10123 10142 10160 10174 10183 10194 10223 10230 10236 10240 10240 10254 10264 10268 10282 10294 10305 10315 10330 10342 10332 10314 10320 10326 10332 10340 10348 10354 10357 10358 10359 10362 10364 10364 10363 10363 10359 10356 10353
10057 10072 10086 10096 10111 10133 10145 10158 10163 10174 10179 10193 10203 10202 10211 10222 10229 10241 10261 10272 10280 10292 10306 10316 10298 10291 10302 10308 10312 10322 10331 10340 10344 10345 10347 10352 10355 10356 10356 10356 10353 10351 10348 10343
10057 10072 10088 10100 10111 10116 10124 10134 10141 10152 10155 10162 10172 10184 10200 10210 10227 10240 10251 10261 10274 10285 10285 10262 10268 10276 10286 10294 10303 10315 10326 10331 10332 10336 10341 10345 10347 10348 10349 10347 10345 10343 10339 10334
10056 10069 10077 10087 10094 10103 10115 10122 10131 10142 10152 10161 10179 10192 10203 10211 10219 10231 10240 10250 10255 10242 10229 10249 10258 10268 10278 10289 10301 10311 10316 10319 10325 10332 10336 10338 10340 10341 10340 10338 10337 10333 10330 10325
10053 10059 10066 10072 10082 10093 10103 10113 10124 10136 10150 10161 10170 10178 10188 10196 10207 10217 10224 10220 10214 10225 10239 10246 10253 10263 10276 10288 10296 10300 10306 10314 10322 10326 10330 10332 10333 10332 10331 10330 10327 10324 10321 10317